• In India
  • List of Countries
  • For 7 days
  • Water Temperature
  • Satellite Maps
  • Weather Map
  • Weather Widgets
  • user-avatar
    Login

    Hourly Weather Ksiezomierz

    Today, 23 October, Tuesday

    Time Temperature Precipitation Wind Pressure Humidity
    00:00 +7°C° 0.1 mm 4 mps 748 mmHg 82%
    01:00 +7°C° 0.1 mm 4 mps 748 mmHg 85%
    02:00 +6°C° 0 mm 4 mps 747 mmHg 87%
    03:00 +5°C° 0 mm 4 mps 747 mmHg 90%
    04:00 +4°C° 0 mm 4 mps 747 mmHg 92%
    05:00 +4°C° 0 mm 4 mps 746 mmHg 91%
    06:00 +4°C° 0 mm 4 mps 746 mmHg 90%
    07:00 +4°C° 0 mm 4 mps 746 mmHg 90%
    08:00 +5°C° 0 mm 5 mps 745 mmHg 82%
    09:00 +5°C° 0 mm 6 mps 744 mmHg 74%
    10:00 +6°C° 0 mm 7 mps 743 mmHg 66%
    11:00 +6°C° 0.6 mm 7 mps 742 mmHg 67%
    12:00 +6°C° 0.6 mm 8 mps 741 mmHg 68%
    13:00 +5°C° 0.6 mm 8 mps 740 mmHg 69%
    14:00 +5°C° 0.9 mm 9 mps 738 mmHg 71%
    15:00 +5°C° 0.9 mm 9 mps 737 mmHg 73%
    16:00 +5°C° 0.9 mm 9 mps 736 mmHg 75%
    17:00 +6°C° 0.5 mm 9 mps 735 mmHg 76%
    18:00 +6°C° 0.5 mm 10 mps 734 mmHg 77%
    19:00 +6°C° 0.5 mm 10 mps 734 mmHg 79%
    20:00 +7°C° 1 mm 9 mps 733 mmHg 81%
    21:00 +7°C° 1 mm 9 mps 732 mmHg 83%
    22:00 +7°C° 1 mm 8 mps 731 mmHg 85%
    23:00 +7°C° 2.1 mm 8 mps 730 mmHg 86%

    Tomorrow, 24 October, Wednesday

    Time Temperature Precipitation Wind Pressure Humidity
    00:00 +8°C° 2.1 mm 7 mps 730 mmHg 88%
    01:00 +8°C° 2.1 mm 6 mps 729 mmHg 89%
    02:00 +7°C° 1.7 mm 6 mps 728 mmHg 86%
    03:00 +6°C° 1.7 mm 7 mps 727 mmHg 84%
    04:00 +6°C° 1.7 mm 7 mps 726 mmHg 82%
    05:00 +5°C° 0.2 mm 8 mps 727 mmHg 77%
    06:00 +3°C° 0.2 mm 9 mps 727 mmHg 73%
    07:00 +3°C° 0.2 mm 10 mps 728 mmHg 69%
    08:00 +3°C° 0.1 mm 10 mps 728 mmHg 62%
    09:00 +3°C° 0.1 mm 11 mps 729 mmHg 55%
    10:00 +3°C° 0.1 mm 11 mps 730 mmHg 48%
    11:00 +4°C° 0 mm 11 mps 730 mmHg 48%
    12:00 +4°C° 0 mm 11 mps 731 mmHg 47%
    13:00 +4°C° 0 mm 11 mps 731 mmHg 47%
    14:00 +4°C° 0 mm 11 mps 731 mmHg 48%
    15:00 +4°C° 0 mm 11 mps 732 mmHg 50%
    16:00 +3°C° 0 mm 11 mps 732 mmHg 52%
    17:00 +3°C° 0 mm 11 mps 732 mmHg 53%
    18:00 +3°C° 0 mm 11 mps 733 mmHg 53%
    19:00 +3°C° 0 mm 11 mps 734 mmHg 54%
    20:00 +2°C° 0 mm 11 mps 734 mmHg 56%
    21:00 +2°C° 0 mm 11 mps 735 mmHg 57%
    22:00 +2°C° 0 mm 10 mps 736 mmHg 58%
    23:00 +2°C° 0 mm 10 mps 736 mmHg 60%

    Day after tomorrow, 25 October, Thursday

    Time Temperature Precipitation Wind Pressure Humidity
    00:00 +2°C° 0 mm 9 mps 737 mmHg 62%
    01:00 +2°C° 0 mm 8 mps 737 mmHg 63%
    02:00 +1°C° 0 mm 8 mps 738 mmHg 65%
    03:00 +2°C° 0 mm 7 mps 738 mmHg 67%
    04:00 0°C° 0 mm 7 mps 738 mmHg 69%
    05:00 +1°C° 0 mm 6 mps 738 mmHg 70%
    06:00 +1°C° 0 mm 6 mps 738 mmHg 72%
    07:00 +1°C° 0 mm 6 mps 738 mmHg 73%
    08:00 +2°C° 0.2 mm 6 mps 737 mmHg 74%
    09:00 +2°C° 0.2 mm 6 mps 736 mmHg 74%
    10:00 +3°C° 0.2 mm 6 mps 736 mmHg 75%
    11:00 +4°C° 0.9 mm 7 mps 735 mmHg 78%
    12:00 +5°C° 0.9 mm 7 mps 734 mmHg 81%
    13:00 +6°C° 0.9 mm 8 mps 733 mmHg 84%
    14:00 +6°C° 0.5 mm 8 mps 733 mmHg 81%
    15:00 +7°C° 0.5 mm 8 mps 732 mmHg 78%
    16:00 +7°C° 0.5 mm 9 mps 732 mmHg 75%
    17:00 +7°C° 0.1 mm 9 mps 733 mmHg 76%
    18:00 +6°C° 0.1 mm 8 mps 734 mmHg 76%
    19:00 +6°C° 0.1 mm 8 mps 734 mmHg 77%
    20:00 +5°C° 0 mm 7 mps 735 mmHg 79%
    21:00 +5°C° 0 mm 7 mps 736 mmHg 81%
    22:00 +4°C° 0 mm 6 mps 737 mmHg 83%
    23:00 +4°C° 0 mm 6 mps 737 mmHg 85%

    26 October, Friday

    Time Temperature Precipitation Wind Pressure Humidity
    00:00 +4°C° 0 mm 6 mps 737 mmHg 86%
    01:00 +5°C° 0 mm 5 mps 738 mmHg 88%
    02:00 +3°C° 0 mm 5 mps 738 mmHg 89%
    03:00 +3°C° 0 mm 5 mps 738 mmHg 89%
    04:00 +3°C° 0 mm 5 mps 738 mmHg 90%
    05:00 +4°C° 0 mm 4 mps 739 mmHg 90%
    06:00 +4°C° 0 mm 4 mps 739 mmHg 90%
    07:00 +4°C° 0 mm 4 mps 739 mmHg 90%
    08:00 +5°C° 0 mm 4 mps 739 mmHg 85%
    09:00 +6°C° 0 mm 4 mps 739 mmHg 79%
    10:00 +7°C° 0 mm 5 mps 739 mmHg 73%
    11:00 +8°C° 0 mm 5 mps 739 mmHg 71%
    12:00 +8°C° 0 mm 5 mps 739 mmHg 68%
    13:00 +9°C° 0 mm 5 mps 739 mmHg 66%
    14:00 +8°C° 0 mm 4 mps 739 mmHg 69%
    15:00 +9°C° 0 mm 3 mps 738 mmHg 73%
    16:00 +9°C° 0 mm 2 mps 738 mmHg 77%
    17:00 +8°C° 0 mm 3 mps 738 mmHg 80%
    18:00 +8°C° 0 mm 3 mps 738 mmHg 83%
    19:00 +8°C° 0 mm 3 mps 738 mmHg 86%
    20:00 +8°C° 0 mm 3 mps 738 mmHg 85%
    21:00 +8°C° 0 mm 3 mps 737 mmHg 85%
    22:00 +6°C° 0 mm 4 mps 737 mmHg 85%
    23:00 +7°C° 0 mm 4 mps 737 mmHg 85%

    27 October, Saturday

    Time Temperature Precipitation Wind Pressure Humidity
    00:00 +7°C° 0 mm 4 mps 736 mmHg 85%
    01:00 +7°C° 0 mm 4 mps 736 mmHg 85%
    02:00 +7°C° 0 mm 4 mps 735 mmHg 84%
    03:00 +7°C° 0 mm 4 mps 735 mmHg 84%
    04:00 +8°C° 0 mm 4 mps 734 mmHg 84%
    05:00 +8°C° 0 mm 4 mps 734 mmHg 85%
    06:00 +7°C° 0 mm 4 mps 734 mmHg 86%
    07:00 +7°C° 0 mm 4 mps 734 mmHg 88%
    08:00 +10°C° 0 mm 4 mps 734 mmHg 83%
    09:00 +11°C° 0 mm 4 mps 734 mmHg 79%
    10:00 +12°C° 0 mm 4 mps 734 mmHg 74%
    11:00 +12°C° 0 mm 3 mps 734 mmHg 72%
    12:00 +14°C° 0 mm 2 mps 734 mmHg 71%
    13:00 +14°C° 0 mm 1 mps 734 mmHg 69%
    14:00 +13°C° 1 mm 2 mps 734 mmHg 75%
    15:00 +12°C° 1 mm 2 mps 733 mmHg 81%
    16:00 +10°C° 1 mm 3 mps 733 mmHg 87%
    17:00 +9°C° 0.7 mm 3 mps 734 mmHg 88%
    18:00 +9°C° 0.7 mm 3 mps 734 mmHg 88%
    19:00 +8°C° 0.7 mm 3 mps 734 mmHg 88%
    20:00 +8°C° 0.1 mm 3 mps 734 mmHg 86%
    21:00 +8°C° 0.1 mm 2 mps 734 mmHg 85%
    22:00 +7°C° 0.1 mm 2 mps 734 mmHg 83%
    23:00 +7°C° 0.2 mm 2 mps 734 mmHg 83%

    28 October, Sunday

    Time Temperature Precipitation Wind Pressure Humidity
    00:00 +7°C° 0.2 mm 3 mps 733 mmHg 82%
    01:00 +7°C° 0.2 mm 3 mps 733 mmHg 81%
    02:00 +7°C° 0.3 mm 3 mps 733 mmHg 81%
    03:00 +5°C° 0.3 mm 4 mps 732 mmHg 81%
    04:00 +5°C° 0.3 mm 4 mps 732 mmHg 81%
    05:00 +5°C° 1.2 mm 4 mps 732 mmHg 83%
    06:00 +4°C° 1.2 mm 4 mps 731 mmHg 84%
    07:00 +4°C° 1.1 mm 4 mps 731 mmHg 86%
    08:00 +4°C° 0.2 mm 4 mps 731 mmHg 85%
    09:00 +4°C° 0.2 mm 3 mps 732 mmHg 84%
    10:00 +5°C° 0.2 mm 3 mps 732 mmHg 84%
    11:00 +5°C° 0.1 mm 3 mps 733 mmHg 82%
    12:00 +5°C° 0.1 mm 3 mps 733 mmHg 81%
    13:00 +5°C° 0.1 mm 4 mps 734 mmHg 80%
    14:00 +5°C° 0 mm 3 mps 735 mmHg 80%
    15:00 +5°C° 0 mm 3 mps 736 mmHg 80%
    16:00 +4°C° 0 mm 3 mps 737 mmHg 81%
    17:00 +4°C° 0 mm 3 mps 738 mmHg 83%
    18:00 +3°C° 0 mm 3 mps 739 mmHg 85%
    19:00 +4°C° 0 mm 2 mps 739 mmHg 87%
    20:00 +3°C° 0 mm 2 mps 740 mmHg 87%
    21:00 +3°C° 0 mm 2 mps 741 mmHg 88%
    22:00 +3°C° 0 mm 2 mps 741 mmHg 88%
    23:00 +3°C° 0 mm 2 mps 742 mmHg 88%

    29 October, Monday

    Time Temperature Precipitation Wind Pressure Humidity
    00:00 +2°C° 0 mm 2 mps 742 mmHg 89%
    01:00 +2°C° 0 mm 2 mps 742 mmHg 89%
    02:00 +2°C° 0 mm 2 mps 742 mmHg 89%
    03:00 +2°C° 0 mm 2 mps 743 mmHg 89%
    04:00 +2°C° 0 mm 2 mps 743 mmHg 90%
    05:00 +2°C° 0 mm 2 mps 743 mmHg 89%
    06:00 +3°C° 0 mm 1 mps 743 mmHg 89%
    07:00 +3°C° 0 mm 1 mps 743 mmHg 89%
    08:00 +4°C° 0 mm 1 mps 743 mmHg 84%
    09:00 +5°C° 0 mm 1 mps 744 mmHg 79%
    10:00 +6°C° 0 mm 1 mps 744 mmHg 74%
    11:00 +7°C° 0 mm 1 mps 744 mmHg 71%
    12:00 +7°C° 0 mm 2 mps 743 mmHg 69%
    13:00 +7°C° 0 mm 2 mps 743 mmHg 67%
    14:00 +7°C° 0 mm 2 mps 743 mmHg 70%
    15:00 +5°C° 0 mm 3 mps 742 mmHg 73%
    16:00 +5°C° 0 mm 3 mps 742 mmHg 75%
    17:00 +5°C° 0.1 mm 4 mps 742 mmHg 77%
    18:00 +5°C° 0.1 mm 4 mps 741 mmHg 79%
    19:00 +5°C° 0.1 mm 4 mps 741 mmHg 81%
    20:00 +4°C° 0.3 mm 4 mps 741 mmHg 83%
    21:00 +3°C° 0.3 mm 5 mps 740 mmHg 84%
    22:00 +3°C° 0.3 mm 5 mps 740 mmHg 86%
    23:00 +3°C° 0.3 mm 5 mps 739 mmHg 87%
    Show more